Location: Olsztyn
(53.7711°N, 20.4783°E)
Time: 05:20:47
(UTC+02:00)

ISS - Visible Passes

Search period start: 28 May 2018 00:00
Search period end: 07 June 2018 00:00
Orbit: 402 x 407 km, 51.6° (Epoch: 28 May)

Date Brightness Start Highest point End Pass type
(mag) Time Alt. Az. Time Alt. Az. Time Alt. Az.
28 May -1.4 01:08:08 10° WSW 01:08:21 11° WSW 01:08:21 11° WSW visible
28 May -3.7 22:38:55 10° W 22:42:08 53° S 22:45:05 12° ESE visible
29 May -2.3 00:15:35 10° W 00:17:42 21° SW 00:17:42 21° SW visible
29 May -3.7 21:46:43 10° W 21:49:57 59° S 21:53:11 10° ESE visible
29 May -2.9 23:23:12 10° W 23:26:09 30° SSW 23:27:06 25° S visible
30 May -3.3 22:30:55 10° W 22:34:01 40° SSW 22:36:31 14° SE visible
31 May -1.6 00:08:10 10° WSW 00:09:08 13° SW 00:09:08 13° SW visible
31 May -2.2 23:15:25 10° W 23:17:53 20° SSW 23:18:34 19° SSW visible
01 Jun -2.6 22:22:57 10° W 22:25:48 27° SSW 22:28:02 14° SSE visible
02 Jun -1.5 23:08:11 10° WSW 23:09:29 12° SW 23:10:09 11° SSW visible
03 Jun -1.9 22:15:10 10° WSW 22:17:26 18° SSW 22:19:40 10° S visible
05 Jun -1.2 22:08:38 10° SW 22:08:56 10° SW 22:09:14 10° SW visible
